Location: Asheville, NC
(35.6000°N, 82.5500°W)
Time: 02:21:53

XW-2A - Pass Details

Date: 13 March 2018
Orbit: 436 x 455 km, 97.4° (Epoch: 16 March)

Event Time Altitude Azimuth Distance (km) Brightness Sun altitude
Rises 20:10:58 0° 144° (SE) 2,399 ? -7.9°
Reaches altitude 10° 20:13:10 10° 131° (SE) 1,536 ? -8.4°
Maximum altitude 20:15:57 26° 73° (ENE) 901 ? -8.9°
Drops below altitude 10° 20:18:45 10° 15° (NNE) 1,548 ? -9.5°
Sets 20:20:59 0° 2° (N) 2,424 ? -9.9°
